Plattsburgh, NY

12:53 PM EST on December 12, 2019 (GMT -0500)
Plattsburgh International

Weather History for KPBG - November, 2019

Change the Weather History Date:

Saturday, November 16, 2019

  Actual Average Record
Temperature  
Mean Temperature 15 °F 37 °F  
Max Temperature 25 °F 46 °F 69 °F (1989)
Min Temperature 5 °F 27 °F 11 °F (1967)
Degree Days  
Heating Degree Days 50 28  
Month to date heating degree days 566 409  
Since 1 July heating degree days 1222 1192  
Cooling Degree Days 0 0  
Month to date cooling degree days 0 0  
Year to date cooling degree days 406 346  
Moisture  
Dew Point 3 °F    
Average Humidity 58    
Maximum Humidity 77    
Minimum Humidity 39    
Precipitation  
Precipitation 0.00 in - 0.91 in (2018)
Month to date precipitation 0.81 0.00  
Year to date precipitation 28.23  
Sea Level Pressure  
Sea Level Pressure 30.59 in    
Wind  
Wind Speed 5 mph ()    
Max Wind Speed 20 mph    
Max Gust Speed 24 mph    
Visibility 10.0 miles    
Events      
T = Trace of Precipitation, MM = Missing Value Source: Averaged Metar Reports

Daily Weather History Graph

Daily Weather History Graph

Search for Another Location

Airport or City:

Astronomy

Nov. 16, 2019 Rise Set
Actual Time 6:51 AM EST 4:25 PM EST
Civil Twilight 6:19 AM EST 4:56 PM EST
Nautical Twilight 5:44 AM EST 5:32 PM EST
Astronomical Twilight 5:10 AM EST 6:06 PM EST
Moon 7:50 PM EST (11/16) 10:47 AM EST (11/16)
Length of Visible Light 10h 36m
Length of Day
9h 33m
Waning Gibbous, 82% of the Moon is Illuminated
Nov 16
Waning Gibbous
Nov 19
Last Quarter
Nov 26
New
Dec 4
First Quarter
Dec 12
Full

Hourly Weather History & Observations

Time (EST) Temp. Windchill Dew Point Humidity Pressure Visibility Wind Dir Wind Speed Gust Speed Precip Events Conditions
12:53 AM 19.0 °F 5.6 °F 5.0 °F 54% 30.46 in 10.0 mi NNW 13.8 mph - N/A   Clear
1:53 AM 17.1 °F 3.6 °F 3.0 °F 54% 30.48 in 10.0 mi NNW 12.7 mph - N/A   Clear
2:53 AM 15.1 °F 3.3 °F 3.0 °F 59% 30.50 in 10.0 mi NNW 9.2 mph - N/A   Clear
3:53 AM 10.9 °F - 1.9 °F 67% 30.52 in 10.0 mi Calm Calm - N/A   Clear
4:53 AM 12.0 °F 4.1 °F 3.0 °F 67% 30.54 in 10.0 mi NW 4.6 mph - N/A   Clear
5:53 AM 10.9 °F 2.9 °F 3.0 °F 70% 30.57 in 10.0 mi NNW 4.6 mph - N/A   Clear
6:53 AM 8.1 °F 1.4 °F 1.9 °F 76% 30.61 in 10.0 mi WNW 3.5 mph - N/A   Clear
8:53 AM 17.1 °F 11.7 °F 3.0 °F 54% 30.64 in 10.0 mi Variable 3.5 mph - N/A   Clear
9:53 AM 19.9 °F - 3.9 °F 50% 30.66 in 10.0 mi Calm Calm - N/A   Clear
10:53 AM 21.0 °F 14.6 °F 1.9 °F 44% 30.65 in 10.0 mi North 4.6 mph - N/A   Clear
11:53 AM 21.9 °F - 1.0 °F 40% 30.64 in 10.0 mi Calm Calm - N/A   Clear
12:53 PM 23.0 °F 17.0 °F 3.0 °F 42% 30.62 in 10.0 mi Variable 4.6 mph - N/A   Clear
1:53 PM 23.0 °F - 1.9 °F 40% 30.60 in 10.0 mi Calm Calm - N/A   Clear
2:53 PM 24.1 °F 17.0 °F 5.0 °F 44% 30.59 in 10.0 mi NE 5.8 mph - N/A   Clear
3:53 PM 23.0 °F 15.8 °F 6.1 °F 48% 30.60 in 10.0 mi NE 5.8 mph - N/A   Clear
4:53 PM 19.0 °F 9.0 °F 3.9 °F 52% 30.60 in 10.0 mi North 8.1 mph - N/A   Clear
5:53 PM 18.0 °F 6.9 °F 3.9 °F 54% 30.60 in 10.0 mi NNW 9.2 mph - N/A   Clear
6:53 PM 17.1 °F 7.6 °F 3.9 °F 56% 30.61 in 10.0 mi NW 6.9 mph - N/A   Clear
7:53 PM 16.0 °F 8.8 °F 3.9 °F 59% 30.61 in 10.0 mi WNW 4.6 mph - N/A   Clear
8:53 PM 12.0 °F - 6.1 °F 77% 30.61 in 10.0 mi Calm Calm - N/A   Clear
9:53 PM 10.9 °F - 3.0 °F 70% 30.60 in 10.0 mi Calm Calm - N/A   Clear
10:53 PM 10.0 °F - 1.9 °F 70% 30.59 in 10.0 mi Calm Calm - N/A   Clear
11:53 PM 8.1 °F - 1.9 °F 76% 30.57 in 10.0 mi Calm Calm - N/A   Clear